1487293201.02,6369,13.31,73924.8,-2.69,-11.07,-9.93,0,*53
1487293202.23,6370,13.31,73916.8,-2.69,-11.15,-9.93,0,*58
1487293203.46,6371,13.31,73926.5,-2.69,-11.07,-9.93,0,*5A
1487293204.67,6372,13.31,73918.5,-2.69,-11.01,-9.93,0,*5F
1487293205.87,6373,13.31,73922.0,-2.69,-11.15,-9.97,0,*5F
1487293207.1,6374,13.31,73930.3,-2.67,-11.15,-10.05,0,*65
1487293208.3,6375,13.31,73928.8,-2.65,-11.01,-9.93,0,*54
1487293209.53,6376,13.31,73924.3,-2.67,-11.15,-10.09,0,*6B
1487293210.72,6377,13.31,73928.8,-2.65,-10.89,-9.89,0,*5C
1487293211.95,6378,13.31,73920.5,-2.67,-10.93,-9.93,0,*51
1487293213.18,6379,13.31,73928.8,-2.67,-10.93,-9.97,0,*54
1487293214.38,6380,13.31,73926.8,-2.65,-10.97,-9.93,0,*50
1487293215.58,6381,13.31,73924.0,-2.65,-10.89,-9.93,0,*5E
1487293216.81,6382,13.31,73920.3,-2.67,-11.01,-10.05,0,*69
1487293218.01,6383,13.31,73920.0,-2.65,-10.89,-10.01,0,*6F
1487293219.21,6384,13.31,73924.0,-2.65,-10.89,-9.93,0,*5B
1487293220.42,6385,13.31,73922.3,-2.65,-10.97,-10.01,0,*66
1487293221.62,6386,13.31,73922.0,-2.65,-10.89,-9.93,0,*59
1487293222.83,6387,13.31,73926.8,-2.65,-10.97,-10.05,0,*60
1487293224.04,6388,13.31,73926.0,-2.65,-11.01,-10.19,0,*6C
1487293225.24,6389,13.31,73922.5,-2.65,-10.85,-10.01,0,*69
1487293226.48,6390,13.31,73928.3,-2.67,-10.93,-10.19,0,*6D
1487293227.71,6391,13.31,73922.5,-2.63,-10.89,-10.05,0,*6E
1487293228.94,6392,13.31,73924.8,-2.63,-10.89,-10.05,0,*6D
1487293230.16,6393,13.31,73922.3,-2.63,-10.85,-10.05,0,*60
1487293231.4,6394,13.31,73922.3,-2.63,-10.85,-10.15,0,*66
1487293232.6,6395,13.31,73922.5,-2.61,-10.85,-10.15,0,*65
1487293233.84,6396,13.31,73920.3,-2.63,-11.01,-10.27,0,*68
1487293235.05,6397,13.31,73922.5,-2.61,-10.93,-10.23,0,*65
1487293236.29,6398,13.31,73924.5,-2.63,-10.97,-10.27,0,*68
1487293237.53,6399,13.31,73918.3,-2.63,-10.97,-10.31,0,*6E
1487293238.74,6400,13.31,73926.8,-2.61,-10.93,-10.27,0,*68
1487293239.98,6401,13.31,73918.5,-2.63,-10.97,-10.27,0,*6F
1487293241.18,6402,13.31,73922.8,-2.61,-10.85,-10.27,0,*6D
1487293242.42,6403,13.31,73922.8,-2.63,-11.15,-10.35,0,*65
1487293243.63,6404,13.31,73920.8,-2.61,-10.93,-10.31,0,*6B
1487293244.83,6405,13.31,73922.0,-2.61,-10.93,-10.31,0,*6A
1487293246.07,6406,13.31,73922.8,-2.61,-10.93,-10.41,0,*6E
1487293247.28,6407,13.31,73922.3,-2.61,-10.93,-10.31,0,*68
1487293248.54,6408,13.31,73918.3,-2.59,-10.93,-10.41,0,*6B
1487293249.77,6409,13.31,73920.8,-2.61,-11.07,-10.45,0,*69
1487293251.01,6410,13.31,73922.0,-2.59,-10.97,-10.45,0,*62
1487293252.27,6411,13.31,73920.0,-2.61,-11.07,-10.41,0,*64
1487293253.5,6412,13.31,73922.3,-2.61,-11.07,-10.53,0,*64
1487293254.76,6413,13.31,73916.3,-2.59,-11.07,-10.45,0,*69
1487293256.01,6414,13.31,73926.3,-2.59,-11.07,-10.53,0,*69
1487293257.27,6415,13.31,73918.3,-2.59,-11.07,-10.53,0,*68
1487293258.5,6416,13.31,73918.3,-2.59,-10.97,-10.45,0,*64
1487293259.74,6417,13.31,73920.3,-2.59,-10.97,-10.53,0,*62
1487293260.97,6418,13.31,73922.8,-2.59,-11.11,-10.53,0,*62
1487293262.2,6419,13.31,73918.8,-2.59,-11.11,-10.53,0,*63
1487293263.43,6420,13.31,73916.5,-2.59,-11.11,-10.57,0,*6D
1487293264.68,6421,13.31,73914.5,-2.59,-11.07,-10.57,0,*6B
1487293265.91,6422,13.31,73916.0,-2.59,-11.15,-10.57,0,*6B
1487293267.17,6423,13.31,73918.8,-2.59,-11.23,-10.71,0,*6B
1487293268.43,6424,13.31,73918.8,-2.59,-11.23,-10.79,0,*64
1487293269.68,6425,13.31,73922.0,-2.59,-11.15,-10.71,0,*68
1487293270.96,6426,13.31,73920.5,-2.59,-11.29,-10.79,0,*6C
1487293272.17,6427,13.31,73918.5,-2.57,-11.23,-10.89,0,*66
1487293273.37,6428,13.31,73918.5,-2.57,-11.23,-10.93,0,*62
1487293274.62,6429,13.31,73916.3,-2.59,-11.37,-10.97,0,*6C
1487293275.88,6430,13.31,73916.3,-2.59,-11.37,-10.93,0,*60
1487293277.13,6431,13.31,73922.5,-2.59,-11.37,-10.97,0,*65
1487293278.36,6432,13.31,73926.0,-2.59,-11.41,-11.11,0,*68
1487293279.62,6433,13.31,73916.0,-2.59,-11.29,-10.85,0,*6B
1487293280.84,6434,13.31,73916.8,-2.57,-11.19,-10.75,0,*6E
1487293282.09,6435,13.31,73922.8,-2.59,-11.37,-10.97,0,*61
1487293283.35,6436,13.31,73920.0,-2.59,-11.29,-10.85,0,*6E
1487293284.6,6437,13.31,73922.0,-2.59,-11.29,-10.85,0,*6F
1487293285.8,6438,13.31,73920.3,-2.57,-11.23,-10.89,0,*68
1487293287.05,6439,13.31,73922.8,-2.59,-11.37,-10.85,0,*6E
1487293288.33,6440,13.31,73924.3,-2.59,-11.29,-10.79,0,*6C
1487293289.52,6441,13.31,73922.3,-2.57,-11.19,-10.85,0,*63
1487293290.76,6442,13.31,73920.0,-2.59,-11.41,-10.97,0,*60
1487293291.99,6443,13.31,73926.5,-2.57,-11.23,-10.79,0,*6B
1487293293.21,6444,13.31,73922.3,-2.57,-11.33,-10.93,0,*69
1487293294.46,6445,13.31,73924.0,-2.59,-11.37,-10.85,0,*65
1487293295.68,6446,13.31,73926.8,-2.57,-11.33,-10.93,0,*6B
1487293296.94,6447,13.31,73924.8,-2.55,-11.33,-10.97,0,*6C
1487293298.2,6448,13.31,73926.3,-2.55,-11.29,-10.89,0,*67
1487293299.45,6449,13.31,73926.5,-2.57,-11.29,-10.79,0,*6B
1487293300.67,6450,13.31,73926.5,-2.57,-11.37,-10.89,0,*63
1487293301.93,6451,13.31,73932.0,-2.55,-11.29,-10.89,0,*6F
1487293303.16,6452,13.31,73930.8,-2.55,-11.41,-11.01,0,*63
1487293304.4,6453,13.31,73926.3,-2.55,-11.41,-10.97,0,*6C
1487293305.6,6454,13.31,73926.3,-2.53,-11.41,-10.89,0,*62
1487293306.83,6455,13.31,73930.8,-2.53,-11.33,-10.89,0,*66
1487293308.04,6456,13.31,73928.3,-2.53,-11.45,-11.01,0,*65
1487293309.3,6457,13.31,73926.5,-2.55,-11.33,-10.97,0,*6D
1487293310.53,6458,13.31,73926.0,-2.53,-11.45,-11.07,0,*6D
1487293311.81,6459,13.31,73928.0,-2.55,-11.55,-11.07,0,*6B
1487293313.02,6460,13.31,73926.8,-2.53,-11.41,-10.97,0,*6A
1487293314.28,6461,13.31,73924.5,-2.53,-11.55,-11.07,0,*66
1487293315.53,6462,13.31,73924.3,-2.55,-11.55,-11.01,0,*65
1487293316.81,6463,13.31,73926.8,-2.55,-11.59,-11.07,0,*6E
1487293318.07,6464,13.31,73930.8,-2.55,-11.67,-11.15,0,*67
1487293319.31,6465,13.31,73930.0,-2.55,-11.81,-11.19,0,*62
1487293320.56,6466,13.31,73926.8,-2.55,-11.73,-11.19,0,*6C
1487293321.78,6467,13.31,73924.8,-2.53,-11.73,-11.19,0,*6B
1487293323.05,6468,13.31,73928.8,-2.55,-11.73,-11.29,0,*61
1487293324.3,6469,13.31,73924.5,-2.53,-11.73,-11.29,0,*66
1487293325.55,6470,13.31,73922.0,-2.55,-11.73,-11.19,0,*6B
1487293326.81,6471,13.31,73924.3,-2.53,-11.67,-11.07,0,*66
1487293328.03,6472,13.31,73928.3,-2.53,-11.81,-11.19,0,*62
1487293329.3,6473,13.31,73920.0,-2.55,-11.81,-11.29,0,*66
1487293330.55,6474,13.31,73926.0,-2.55,-11.73,-11.15,0,*63
1487293331.79,6475,13.31,73922.3,-2.55,-11.73,-11.15,0,*62
1487293333.02,6476,13.31,73924.0,-2.53,-11.81,-11.19,0,*66
1487293334.26,6477,13.31,73924.5,-2.55,-11.81,-11.15,0,*6D
1487293335.54,6478,13.31,73922.5,-2.55,-11.67,-11.07,0,*69
1487293336.77,6479,13.31,73924.0,-2.53,-11.67,-11.01,0,*68
1487293338.02,6480,13.31,73926.3,-2.55,-11.67,-11.15,0,*6D
1487293339.28,6481,13.31,73920.0,-2.53,-11.73,-11.07,0,*6C
1487293340.5,6482,13.31,73922.8,-2.53,-11.73,-11.19,0,*60
1487293341.74,6483,13.31,73934.0,-2.53,-11.85,-11.33,0,*60
1487293343.0,6484,13.31,73928.3,-2.53,-11.85,-11.29,0,*6C
1487293344.24,6485,13.31,73928.8,-2.55,-11.85,-11.19,0,*68
1487293345.49,6486,13.31,73926.3,-2.55,-11.81,-11.15,0,*63
1487293346.74,6487,13.31,73924.3,-2.55,-11.73,-11.15,0,*6F
1487293347.96,6488,13.31,73920.3,-2.53,-11.67,-11.15,0,*63
1487293349.19,6489,13.31,73930.5,-2.53,-11.73,-11.19,0,*6B
1487293350.41,6490,13.31,73926.8,-2.53,-11.73,-11.19,0,*63
1487293351.63,6491,13.31,73924.5,-2.53,-11.81,-11.19,0,*6F
1487293352.85,6492,13.31,73928.8,-2.53,-11.81,-11.19,0,*6C
1487293354.1,6493,13.31,73928.8,-2.53,-11.97,-11.33,0,*62
1487293355.37,6494,13.31,73930.0,-2.51,-11.85,-11.29,0,*6F
1487293356.62,6495,13.31,73930.8,-2.53,-11.97,-11.33,0,*64
1487293357.87,6496,13.31,73930.8,-2.53,-11.89,-11.33,0,*68
1487293359.11,6497,13.31,73928.8,-2.53,-11.97,-11.33,0,*66
1487293360.34,6498,13.31,73930.5,-2.53,-11.89,-11.41,0,*63
1487293361.6,6499,13.31,73928.0,-2.51,-11.93,-11.41,0,*6B
1487293362.88,6500,13.31,73928.8,-2.51,-11.93,-11.37,0,*6B
1487293364.13,6501,13.31,73926.8,-2.51,-11.97,-11.41,0,*6F
1487293365.4,6502,13.31,73926.5,-2.51,-11.97,-11.51,0,*6D
1487293366.6,6503,13.31,73930.0,-2.53,-12.03,-11.45,0,*65
1487293367.8,6504,13.31,73932.3,-2.53,-12.03,-11.45,0,*62
1487293369.03,6505,13.31,73920.3,-2.55,-12.03,-11.41,0,*61
1487293370.23,6506,13.31,73926.0,-2.53,-12.03,-11.41,0,*64
1487293371.43,6507,13.31,73930.0,-2.53,-12.03,-11.45,0,*61
1487293372.64,6508,13.31,73930.5,-2.53,-12.03,-11.41,0,*6A
1487293373.89,6509,13.31,73928.3,-2.55,-12.11,-11.45,0,*6A
1487293375.12,6510,13.31,73928.0,-2.53,-12.03,-11.55,0,*66
1487293376.34,6511,13.31,73926.8,-2.53,-12.03,-11.55,0,*67
1487293377.54,6512,13.31,73926.8,-2.53,-12.03,-11.45,0,*65
1487293378.77,6513,13.31,73934.8,-2.53,-12.03,-11.55,0,*65
1487293380.02,6514,13.31,73928.3,-2.53,-12.07,-11.51,0,*62
1487293381.25,6515,13.31,73926.8,-2.53,-12.03,-11.55,0,*63
1487293382.53,6516,13.31,73928.3,-2.55,-12.11,-11.55,0,*65
1487293383.78,6517,13.31,73928.3,-2.53,-12.11,-11.59,0,*6E
1487293385.03,6518,13.31,73930.5,-2.53,-12.11,-11.59,0,*61
1487293386.28,6519,13.31,73930.8,-2.53,-12.11,-11.59,0,*60
1487293387.53,6520,13.31,73932.8,-2.53,-12.11,-11.59,0,*6A
1487293388.79,6521,13.31,73934.8,-2.53,-12.15,-11.59,0,*6F
1487293390.04,6522,13.31,73928.8,-2.53,-12.11,-11.67,0,*65
1487293391.29,6523,13.31,73930.0,-2.53,-12.15,-11.59,0,*6D
1487293392.55,6524,13.31,73924.3,-2.53,-12.11,-11.55,0,*62
1487293393.82,6525,13.31,73934.5,-2.55,-12.15,-11.67,0,*60
1487293395.1,6526,13.31,73930.3,-2.55,-12.15,-11.73,0,*66
1487293396.36,6527,13.31,73926.5,-2.53,-12.11,-11.67,0,*60
1487293397.63,6528,13.25,73920.5,-2.55,-12.11,-11.67,0,*69
1487293398.89,6529,13.31,73930.5,-2.53,-12.15,-11.59,0,*67
1487293400.14,6530,13.31,73930.8,-2.53,-12.15,-11.59,0,*6F
1487293401.34,6531,13.31,73926.0,-2.53,-12.03,-11.45,0,*64
1487293402.59,6532,13.31,73924.5,-2.55,-12.03,-11.59,0,*6C
1487293403.84,6533,13.31,73930.5,-2.53,-12.15,-11.59,0,*6C
1487293405.09,6534,13.31,73926.3,-2.55,-12.03,-11.55,0,*66
1487293406.34,6535,13.31,73926.8,-2.53,-12.11,-11.55,0,*62
1487293407.6,6536,13.31,73926.8,-2.53,-12.11,-11.55,0,*61
1487293408.85,6537,13.31,73934.5,-2.53,-12.11,-11.59,0,*6C
1487293410.08,6538,13.31,73932.8,-2.53,-12.25,-11.59,0,*64
1487293411.33,6539,13.31,73930.3,-2.53,-12.11,-11.59,0,*62
1487293412.59,6540,13.31,73932.8,-2.53,-12.11,-11.55,0,*60
1487293413.82,6541,13.31,73932.3,-2.53,-12.25,-11.67,0,*67
1487293415.07,6542,13.31,73934.8,-2.55,-12.25,-11.81,0,*6A
1487293416.3,6543,13.31,73932.0,-2.53,-12.29,-11.73,0,*6C
1487293417.58,6544,13.31,73930.0,-2.51,-12.07,-11.63,0,*64
1487293418.83,6545,13.31,73930.8,-2.53,-12.15,-11.59,0,*6D
1487293420.05,6546,13.31,73930.0,-2.53,-12.03,-11.59,0,*69
1487293421.28,6547,13.31,73930.5,-2.53,-12.03,-11.59,0,*68
1487293422.53,6548,13.31,73932.3,-2.53,-12.11,-11.59,0,*64
1487293423.78,6549,13.31,73932.8,-2.53,-12.15,-11.73,0,*69
1487293425.04,6550,13.31,73930.0,-2.53,-12.11,-11.67,0,*60
1487293426.27,6551,13.31,73928.0,-2.53,-12.11,-11.45,0,*61
1487293427.54,6552,13.31,73930.0,-2.55,-12.11,-11.59,0,*69
1487293428.79,6553,13.31,73932.3,-2.53,-12.15,-11.73,0,*62
1487293430.05,6554,13.31,73932.3,-2.53,-12.15,-11.55,0,*61
1487293431.33,6555,13.31,73932.5,-2.55,-12.15,-11.67,0,*67
1487293432.55,6556,13.31,73932.0,-2.53,-12.03,-11.55,0,*64
1487293433.8,6557,13.31,73932.5,-2.53,-12.11,-11.59,0,*6A
1487293435.06,6558,13.31,73936.0,-2.53,-12.15,-11.67,0,*6C
1487293436.28,6559,13.31,73934.0,-2.55,-12.03,-11.45,0,*6C
1487293437.51,6560,13.31,73930.8,-2.53,-12.03,-11.55,0,*61
1487293438.71,6561,13.31,73932.3,-2.53,-12.03,-11.45,0,*61
1487293439.93,6562,13.31,73934.0,-2.53,-12.03,-11.59,0,*6F
1487293441.16,6563,13.25,73924.5,-2.53,-12.03,-11.55,0,*62
1487293442.36,6564,13.31,73928.0,-2.53,-12.03,-11.41,0,*60
1487293443.56,6565,13.31,73928.8,-2.53,-12.03,-11.45,0,*65
1487293444.76,6566,13.31,73926.3,-2.53,-12.03,-11.45,0,*66
1487293446.01,6567,13.31,73928.3,-2.53,-12.11,-11.59,0,*69
1487293447.24,6568,13.31,73930.5,-2.53,-12.03,-11.55,0,*69
1487293448.44,6569,13.31,73924.0,-2.53,-12.03,-11.45,0,*69
1487293449.64,6570,13.25,73920.8,-2.53,-12.03,-11.41,0,*65
1487293450.85,6571,13.31,73930.8,-2.53,-12.03,-11.41,0,*64
1487293452.07,6572,13.31,73930.5,-2.55,-12.03,-11.45,0,*65
1487293453.3,6573,13.31,73936.0,-2.53,-12.11,-11.45,0,*61
1487293454.5,6574,13.31,73932.8,-2.53,-12.03,-11.45,0,*65
1487293455.7,6575,13.31,73934.3,-2.53,-12.03,-11.45,0,*64
1487293456.93,6576,13.31,73930.8,-2.53,-12.03,-11.55,0,*66
1487293458.18,6577,13.31,73930.8,-2.53,-12.11,-11.55,0,*64
1487293459.43,6578,13.31,73934.3,-2.53,-12.11,-11.59,0,*67
1487293460.68,6579,13.31,73934.0,-2.53,-12.11,-11.59,0,*66
1487293461.91,6580,13.31,73934.8,-2.53,-12.03,-11.55,0,*6F
1487293463.17,6581,13.31,73932.5,-2.53,-12.11,-11.55,0,*6D
1487293464.42,6582,13.31,73932.5,-2.53,-12.11,-11.55,0,*6E
1487293465.62,6583,13.31,73928.0,-2.53,-12.03,-11.41,0,*69
1487293466.82,6584,13.31,73932.0,-2.53,-12.03,-11.41,0,*6E
1487293468.03,6585,13.31,73934.0,-2.53,-12.03,-11.41,0,*6F
1487293469.26,6586,13.25,73930.0,-2.53,-12.11,-11.45,0,*6B
1487293470.48,6587,13.25,73926.0,-2.53,-12.11,-11.45,0,*6A
1487293471.74,6588,13.31,73932.0,-2.55,-12.15,-11.45,0,*67
1487293472.96,6589,13.31,73930.0,-2.53,-12.15,-11.45,0,*60
1487293474.22,6590,13.31,73928.3,-2.55,-12.11,-11.45,0,*6A
1487293475.44,6591,13.31,73934.0,-2.53,-12.11,-11.45,0,*6D
1487293476.65,6592,13.31,73934.0,-2.53,-12.03,-11.41,0,*69
1487293477.9,6593,13.31,73936.0,-2.55,-12.11,-11.41,0,*6D
1487293479.1,6594,13.31,73938.3,-2.53,-12.03,-11.41,0,*6F
1487293480.31,6595,13.25,73934.3,-2.53,-12.03,-11.41,0,*6E
1487293481.51,6596,13.31,73928.0,-2.53,-12.03,-11.41,0,*6D
1487293482.75,6597,13.31,73926.5,-2.55,-12.03,-11.33,0,*6F
1487293484.03,6598,13.31,73930.0,-2.55,-11.97,-11.29,0,*65
1487293485.3,6599,13.31,73928.8,-2.55,-11.97,-11.33,0,*6F
1487293486.55,6600,13.31,73930.0,-2.53,-11.97,-11.29,0,*61
1487293487.8,6601,13.31,73930.3,-2.53,-11.97,-11.33,0,*6B
1487293489.02,6602,13.31,73928.8,-2.53,-11.89,-11.19,0,*6F
1487293490.25,6603,13.31,73922.5,-2.53,-11.97,-11.19,0,*61
1487293491.5,6604,13.31,73922.0,-2.55,-11.89,-11.19,0,*6F
1487293492.72,6605,13.31,73924.5,-2.53,-11.97,-11.19,0,*67
1487293493.95,6606,13.31,73930.3,-2.53,-11.89,-11.19,0,*6B
1487293495.2,6607,13.25,73930.3,-2.55,-11.89,-11.15,0,*60
1487293496.43,6608,13.25,73932.0,-2.53,-11.89,-11.15,0,*69
1487293497.68,6609,13.25,73928.0,-2.55,-11.89,-11.15,0,*6E
1487293498.93,6610,13.31,73934.8,-2.55,-11.89,-11.19,0,*6A
1487293500.18,6611,13.31,73934.0,-2.55,-11.97,-11.15,0,*68
1487293501.43,6612,13.31,73934.5,-2.55,-11.89,-11.15,0,*64
1487293502.65,6613,13.25,73938.3,-2.53,-11.81,-11.01,0,*6E
1487293503.9,6614,13.25,73934.8,-2.55,-11.89,-11.01,0,*67
1487293505.13,6615,13.25,73932.5,-2.53,-11.81,-10.97,0,*66
1487293506.36,6616,13.31,73930.8,-2.53,-11.81,-10.97,0,*65
1487293507.59,6617,13.31,73922.8,-2.53,-11.81,-10.97,0,*64
1487293508.81,6618,13.25,73934.8,-2.53,-11.81,-10.97,0,*6B
1487293510.06,6619,13.31,73934.5,-2.55,-11.81,-10.89,0,*63
1487293511.31,6620,13.25,73932.0,-2.55,-11.73,-10.89,0,*64
1487293512.56,6621,13.25,73928.0,-2.55,-11.81,-10.89,0,*68
1487293513.79,6622,13.31,73928.8,-2.53,-11.85,-10.97,0,*66
1487293515.01,6623,13.31,73938.0,-2.53,-11.81,-10.89,0,*6C
1487293516.24,6624,13.25,73930.5,-2.53,-11.73,-10.89,0,*66
1487293517.48,6625,13.25,73934.0,-2.55,-11.81,-10.89,0,*6C
1487293518.73,6626,13.31,73932.3,-2.55,-11.81,-10.85,0,*63
1487293519.98,6627,13.31,73920.8,-2.53,-11.67,-10.75,0,*63
1487293521.2,6628,13.25,73916.5,-2.53,-11.73,-10.85,0,*66
1487293522.44,6629,13.25,73928.5,-2.55,-11.73,-10.85,0,*61
1487293523.72,6630,13.31,73934.3,-2.55,-11.73,-10.75,0,*66
1487293524.96,6631,13.25,73924.5,-2.55,-11.73,-10.85,0,*68
1487293526.18,6632,13.25,73930.8,-2.53,-11.73,-10.85,0,*6D
1487293527.4,6633,13.25,73926.8,-2.53,-11.81,-10.89,0,*6D
1487293528.62,6634,13.31,73930.0,-2.53,-11.81,-10.85,0,*66
1487293529.84,6635,13.25,73926.5,-2.53,-11.73,-10.85,0,*6A
1487293531.06,6636,13.25,73926.0,-2.53,-11.81,-10.85,0,*64
1487293532.3,6637,13.25,73934.0,-2.55,-11.81,-10.85,0,*63
1487293533.52,6638,13.31,73936.3,-2.53,-11.81,-10.85,0,*6A
1487293534.73,6639,13.31,73936.3,-2.53,-11.81,-10.85,0,*6B
1487293535.95,6640,13.25,73934.8,-2.53,-11.81,-10.85,0,*65
1487293537.17,6641,13.25,73934.3,-2.53,-11.85,-10.85,0,*60
1487293538.39,6642,13.31,73934.5,-2.53,-11.81,-10.85,0,*67
1487293539.61,6643,13.25,73932.8,-2.53,-11.81,-10.85,0,*66
1487293540.86,6644,13.31,73930.3,-2.53,-11.81,-10.75,0,*6E
1487293542.08,6645,13.31,73940.0,-2.53,-11.89,-10.85,0,*68
1487293543.32,6646,13.31,73930.0,-2.55,-11.81,-10.85,0,*65
1487293544.6,6647,13.25,73932.8,-2.55,-11.85,-10.75,0,*6F
1487293545.85,6648,13.31,73926.8,-2.53,-11.81,-10.75,0,*62
1487293547.1,6649,13.31,73928.0,-2.53,-11.73,-10.71,0,*6A
1487293548.37,6650,13.25,73920.8,-2.55,-11.73,-10.71,0,*64
1487293549.65,6651,13.31,73928.5,-2.55,-11.73,-10.71,0,*65
1487293550.92,6652,13.31,73932.5,-2.55,-11.73,-10.71,0,*66
1487293552.2,6653,13.25,73924.5,-2.55,-11.73,-10.63,0,*64
1487293553.47,6654,13.25,73920.8,-2.55,-11.73,-10.71,0,*60
1487293554.75,6655,13.31,73920.5,-2.55,-11.73,-10.63,0,*62
1487293556.02,6656,13.31,73918.3,-2.55,-11.73,-10.63,0,*61
1487293557.29,6657,13.31,73920.0,-2.55,-11.73,-10.71,0,*63
1487293558.57,6658,13.25,73916.3,-2.55,-11.73,-10.63,0,*6F
1487293559.8,6659,13.25,73924.0,-2.53,-11.67,-10.57,0,*6A
1487293561.06,6660,13.31,73922.5,-2.55,-11.67,-10.57,0,*66
1487293562.28,6661,13.25,73920.8,-2.53,-11.67,-10.57,0,*61
1487293563.54,6662,13.25,73918.3,-2.55,-11.67,-10.49,0,*6B
1487293564.79,6663,13.31,73912.5,-2.55,-11.59,-10.57,0,*68
1487293566.05,6664,13.25,73906.3,-2.55,-11.55,-10.49,0,*6C
1487293567.3,6665,13.25,73912.3,-2.55,-11.67,-10.49,0,*6C
1487293568.56,6666,13.31,73922.5,-2.55,-11.67,-10.49,0,*6F
1487293569.81,6667,13.25,73922.5,-2.55,-11.55,-10.45,0,*63
1487293571.05,6668,13.25,73920.8,-2.55,-11.45,-10.35,0,*6A
1487293572.31,6669,13.31,73920.8,-2.55,-11.59,-10.45,0,*61
1487293573.56,6670,13.31,73922.5,-2.55,-11.55,-10.45,0,*65
1487293574.81,6671,13.31,73922.8,-2.55,-11.55,-10.45,0,*64
1487293576.07,6672,13.31,73922.8,-2.55,-11.59,-10.45,0,*6B
1487293577.32,6673,13.25,73926.5,-2.55,-11.67,-10.49,0,*6B
1487293578.55,6674,13.31,73928.5,-2.53,-11.73,-10.57,0,*60
1487293579.8,6675,13.25,73924.8,-2.55,-11.73,-10.57,0,*67
1487293581.05,6676,13.25,73928.3,-2.55,-11.73,-10.49,0,*6B
1487293582.27,6677,13.25,73928.5,-2.57,-11.73,-10.53,0,*63
1487293583.49,6678,13.31,73930.0,-2.57,-11.73,-10.53,0,*6C
1487293584.75,6679,13.25,73924.8,-2.55,-11.67,-10.49,0,*61
1487293586.0,6680,13.25,73926.8,-2.55,-11.59,-10.45,0,*66
1487293587.26,6681,13.31,73930.5,-2.55,-11.59,-10.35,0,*60
1487293588.49,6682,13.31,73934.0,-2.57,-11.63,-10.49,0,*63
1487293589.75,6683,13.25,73928.0,-2.57,-11.59,-10.41,0,*63
1487293590.98,6684,13.25,73934.3,-2.57,-11.63,-10.35,0,*6E
1487293592.21,6685,13.25,73934.0,-2.57,-11.59,-10.27,0,*65
1487293593.5,6686,13.25,73928.3,-2.59,-11.63,-10.41,0,*61
1487293594.76,6687,13.25,73932.8,-2.59,-11.63,-10.31,0,*67
1487293595.99,6688,13.25,73934.3,-2.57,-11.51,-10.27,0,*60
1487293597.21,6689,13.25,73938.3,-2.57,-11.51,-10.23,0,*65
1487293598.47,6690,13.25,73934.0,-2.59,-11.55,-10.31,0,*64
1487293599.73,6691,13.25,73932.0,-2.59,-11.63,-10.31,0,*60
1487293600.98,6692,13.25,73934.5,-2.59,-11.51,-10.31,0,*62
1487293602.24,6693,13.25,73934.8,-2.59,-11.63,-10.31,0,*62
1487293603.5,6694,13.25,73934.8,-2.59,-11.63,-10.31,0,*65
1487293604.76,6695,13.25,73936.3,-2.59,-11.51,-10.27,0,*62
1487293606.02,6696,13.25,73936.5,-2.59,-11.55,-10.27,0,*65
1487293607.27,6697,13.25,73930.3,-2.59,-11.51,-10.23,0,*64
1487293608.52,6698,13.25,73934.5,-2.59,-11.37,-10.09,0,*63
1487293609.78,6699,13.25,73936.0,-2.59,-11.37,-10.09,0,*62
1487293611.01,6700,13.25,73932.0,-2.59,-11.41,-10.09,0,*62
1487293612.24,6701,13.25,73930.0,-2.59,-11.41,-10.09,0,*63
1487293613.49,6702,13.31,73930.3,-2.59,-11.37,-10.09,0,*61
1487293614.74,6703,13.25,73924.3,-2.59,-11.37,-10.09,0,*60
1487293615.98,6704,13.31,73924.5,-2.59,-11.41,-10.15,0,*6B
1487293617.2,6705,13.31,73926.0,-2.57,-11.33,-10.05,0,*60
1487293618.46,6706,13.25,73924.5,-2.59,-11.37,-10.09,0,*65
1487293619.7,6707,13.25,73920.3,-2.59,-11.37,-9.97,0,*5B
1487293620.95,6708,13.25,73922.8,-2.59,-11.37,-9.97,0,*54
1487293622.2,6709,13.25,73920.5,-2.59,-11.29,-9.89,0,*55
1487293623.45,6710,13.25,73928.5,-2.59,-11.29,-9.89,0,*5D
1487293624.68,6711,13.25,73928.0,-2.59,-11.23,-9.89,0,*56
1487293625.9,6712,13.25,73930.8,-2.59,-11.23,-9.89,0,*55
1487293627.1,6713,13.25,73934.0,-2.61,-11.23,-9.89,0,*5F
1487293628.35,6714,13.25,73932.3,-2.63,-11.29,-9.93,0,*5B
1487293629.6,6715,13.25,73934.3,-2.63,-11.33,-9.89,0,*5A
1487293630.85,6716,13.25,73928.5,-2.63,-11.29,-9.89,0,*52
1487293632.05,6717,13.31,73932.8,-2.61,-11.23,-9.89,0,*5B
1487293633.3,6718,13.25,73934.0,-2.59,-11.15,-9.83,0,*50
1487293634.55,6719,13.25,73932.3,-2.63,-11.29,-9.93,0,*56
1487293635.78,6720,13.25,73938.3,-2.61,-11.23,-9.83,0,*55
1487293637.0,6721,13.25,73938.8,-2.61,-11.15,-9.83,0,*51
1487293638.22,6722,13.31,73940.5,-2.63,-11.15,-9.89,0,*5A
1487293639.44,6723,13.25,73934.5,-2.63,-11.15,-9.89,0,*5B
1487293640.66,6724,13.25,73930.3,-2.61,-11.11,-9.83,0,*50
1487293641.89,6725,13.25,73932.0,-2.63,-11.15,-9.79,0,*52
1487293643.11,6726,13.25,73936.0,-2.63,-11.11,-9.75,0,*59
1487293644.34,6727,13.25,73932.8,-2.63,-11.11,-9.79,0,*54
1487293645.54,6728,13.25,73934.0,-2.61,-10.97,-9.75,0,*5A
1487293646.76,6729,13.25,73928.0,-2.63,-11.11,-9.79,0,*5A
1487293647.99,6730,13.25,73932.8,-2.63,-11.11,-9.79,0,*52
1487293649.21,6731,13.25,73932.0,-2.61,-11.07,-9.75,0,*5A
1487293650.41,6732,13.25,73934.8,-2.61,-10.85,-9.71,0,*56
1487293651.64,6733,13.31,73934.3,-2.63,-10.97,-9.79,0,*5E
1487293652.87,6734,13.25,73930.3,-2.63,-11.01,-9.79,0,*57
1487293654.07,6735,13.31,73930.8,-2.65,-11.01,-9.79,0,*50
1487293655.29,6736,13.25,73932.3,-2.63,-11.11,-9.93,0,*50
1487293656.49,6737,13.25,73934.0,-2.65,-11.15,-9.89,0,*58
1487293657.69,6738,13.31,73934.3,-2.65,-11.11,-9.79,0,*5C
1487293658.94,6739,13.25,73932.8,-2.67,-11.07,-9.79,0,*58
1487293660.14,6740,13.25,73928.3,-2.65,-10.97,-9.75,0,*50
1487293661.37,6741,13.25,73926.8,-2.67,-11.01,-9.79,0,*51
1487293662.62,6742,13.25,73930.5,-2.67,-10.93,-9.83,0,*5D
1487293663.86,6743,13.25,73924.3,-2.67,-10.89,-9.57,0,*5E
1487293665.11,6744,13.25,73930.5,-2.67,-10.79,-9.67,0,*55
1487293666.38,6745,13.25,73934.3,-2.67,-10.75,-9.57,0,*5B
1487293667.66,6746,13.25,73934.8,-2.67,-10.67,-9.57,0,*5B
1487293668.93,6747,13.31,73936.0,-2.67,-10.75,-9.53,0,*5D
1487293670.21,6748,13.25,73932.5,-2.67,-10.63,-9.53,0,*55
1487293671.49,6749,13.25,73932.8,-2.67,-10.67,-9.53,0,*50
1487293672.77,6750,13.25,73932.5,-2.67,-10.63,-9.53,0,*5C
1487293674.0,6751,13.25,73934.8,-2.69,-10.53,-9.37,0,*52
1487293675.22,6752,13.25,73928.5,-2.69,-10.53,-9.45,0,*54
1487293676.44,6753,13.25,73930.8,-2.69,-10.53,-9.37,0,*50
1487293677.67,6754,13.25,73936.0,-2.69,-10.53,-9.45,0,*52
1487293678.89,6755,13.25,73938.0,-2.73,-10.57,-9.49,0,*50
1487293680.08,6756,13.25,73934.5,-2.73,-10.53,-9.27,0,*5F
1487293681.31,6757,13.25,73930.8,-2.69,-10.41,-9.27,0,*56
1487293682.51,6758,13.25,73932.5,-2.69,-10.35,-9.23,0,*5E
1487293683.74,6759,13.25,73934.5,-2.73,-10.41,-9.27,0,*53
1487293684.93,6760,13.25,73932.8,-2.69,-10.31,-9.23,0,*51
1487293686.14,6761,13.25,73932.5,-2.69,-10.35,-9.23,0,*54
1487293687.34,6762,13.25,73928.8,-2.73,-10.31,-9.27,0,*5C
1487293688.55,6763,13.25,73930.5,-2.73,-10.23,-9.15,0,*5F
1487293689.75,6764,13.25,73932.0,-2.73,-10.27,-9.27,0,*5D
1487293690.95,6765,13.25,73932.3,-2.69,-10.23,-9.23,0,*57
1487293692.15,6766,13.25,73932.8,-2.69,-10.31,-9.27,0,*53
1487293693.35,6767,13.25,73930.5,-2.69,-10.35,-9.23,0,*52
1487293694.55,6768,13.25,73926.3,-2.73,-10.27,-9.27,0,*51
1487293695.74,6769,13.25,73930.5,-2.73,-10.27,-9.19,0,*5D
1487293696.94,6770,13.25,73932.0,-2.73,-10.15,-9.19,0,*54
1487293698.15,6771,13.25,73928.8,-2.73,-10.09,-9.15,0,*54
1487293699.34,6772,13.25,73924.5,-2.73,-9.89,-9.01,0,*62
1487293700.55,6773,13.25,73926.0,-2.73,-9.83,-9.01,0,*69
1487293701.75,6774,13.25,73934.0,-2.69,-9.97,-9.01,0,*60
1487293702.94,6775,13.25,73932.8,-2.73,-10.01,-9.05,0,*59
1487293704.15,6776,13.25,73930.8,-2.73,-9.83,-8.93,0,*66
1487293705.36,6777,13.25,73926.3,-2.69,-9.57,-8.71,0,*69